Flag for Germany Weather past 2 weeks in Schwabach, Bavaria, Germany

Now
79 °F

Clear.


Feels Like: 79 °F
Forecast: 61 / 85 °F
Wind: 1 mph from North

Location: Nuernberg

Current Time: Aug 31, 2015 at 10:08:29 PM

Latest Report: Aug 31, 2015 at 9:20 PM


Visibility: 10 mi

Pressure: 29.86 "Hg

Humidity: 42%

Dew point: 54 °F

Location of SchwabachLocation

Historic Weather in Schwabach — Graph

°F

Schwabach temperature yesterday

Maximum temperature yesterday: 93 °F (at 3:50 PM)
Minimum temperature yesterday: 61 °F (at 5:50 AM)
Average temperature yesterday: 78 °F

Past Weeks' High & Low Weather Summary

 TemperatureHumidityPressure
High93 °F (Aug 30, 3:50 PM)100% (Aug 19, 1:20 AM)30.27 "Hg (Aug 19, 1:20 AM)
Low46 °F (Aug 22, 5:50 AM)26% (Aug 26, 3:20 PM)29.71 "Hg (Aug 24, 3:20 PM)
Average66 °F68%30.03 "Hg
* Reported Aug 16 8:20 PM — Aug 31 8:50 PM, Schwabach, Weather by CustomWeather, © 2015

Note: Actual official high and low records may vary slightly from our data, if they occured in-between our weather recording intervals... More about our weather records

Advertising

Schwabach weather history for previous 24 hours

 ConditionsComfort  
Time TempWeatherWind HumidityBarometerVisibility
8:50 PM
Mon, Aug 31
81 °FSunny.1 mph39%29.86 "Hg10 mi
8:20 PM81 °FSunny.2 mph42%29.86 "Hg10 mi
7:50 PM84 °FPassing clouds.3 mph37%29.86 "HgN/A
7:20 PM86 °FPassing clouds.7 mph33%29.86 "HgN/A
6:50 PM90 °FSunny.10 mph29%29.86 "Hg10 mi
6:20 PM90 °FSunny.7 mph33%29.86 "Hg10 mi
5:50 PM88 °FPassing clouds.7 mph35%29.86 "HgN/A
5:20 PM90 °FPassing clouds.3 mph33%29.86 "HgN/A
4:50 PM90 °FPassing clouds.5 mph36%29.86 "HgN/A
4:20 PM91 °FPassing clouds.5 mph32%29.89 "HgN/A
3:50 PM91 °FPassing clouds.5 mph32%29.89 "HgN/A
3:20 PM90 °FPassing clouds.7 mph36%29.89 "HgN/A
2:50 PM90 °FPassing clouds.7 mph33%29.92 "HgN/A
2:20 PM91 °FSunny.6 mph30%29.92 "Hg10 mi
1:50 PM91 °FPassing clouds.5 mph34%29.92 "HgN/A
1:20 PM90 °FPassing clouds.7 mph36%29.92 "HgN/A
12:50 PM90 °FSunny.5 mph33%29.95 "Hg10 mi
12:20 PM88 °FPassing clouds.8 mph40%29.95 "HgN/A
11:50 AM88 °FSunny.5 mph40%29.98 "Hg10 mi
11:20 AM84 °FPassing clouds.5 mph45%29.98 "HgN/A
10:50 AM82 °FPassing clouds.5 mph51%29.98 "HgN/A
10:20 AM81 °FSunny.2 mph51%29.98 "Hg10 mi
9:50 AM79 °FPassing clouds.3 mph58%29.98 "HgN/A
9:20 AM75 °FPassing clouds.3 mph61%29.98 "HgN/A
8:50 AM73 °FSunny.2 mph65%29.98 "Hg10 mi
8:20 AM70 °FSunny.2 mph73%29.98 "Hg10 mi
7:50 AM68 °FSunny.3 mph78%29.98 "Hg10 mi
7:20 AM64 °FClear.6 mph83%30.01 "Hg10 mi
6:50 AM63 °FClear.6 mph88%30.01 "Hg10 mi
6:20 AM63 °FClear.5 mph83%30.01 "Hg10 mi
5:50 AM63 °FClear.1 mph88%30.01 "Hg10 mi
5:20 AM64 °FFog.1 mph83%30.01 "HgN/A
4:50 AM64 °FFog.1 mph83%29.98 "HgN/A
4:20 AM64 °FClear.1 mph83%29.98 "Hg10 mi
3:50 AM68 °FClear.3 mph73%30.01 "Hg10 mi
3:20 AM66 °FClear.6 mph78%30.01 "Hg10 mi
2:50 AM70 °FClear.1 mph73%30.01 "Hg10 mi
2:20 AM70 °FClear.2 mph73%30.01 "Hg10 mi
1:50 AM70 °FClear.1 mph73%30.01 "Hg10 mi
1:20 AM70 °FClear.1 mph69%30.01 "Hg10 mi
12:50 AM70 °FClear.3 mph73%30.04 "Hg10 mi
12:20 AM72 °FClear.1 mph69%30.04 "Hg10 mi
11:50 PM
Sun, Aug 30
73 °FClear.2 mph65%30.04 "Hg10 mi
11:20 PM75 °FClear.1 mph57%30.04 "Hg10 mi
10:50 PM73 °FPassing clouds.3 mph65%30.04 "HgN/A
10:20 PM75 °FClear.2 mph61%30.04 "Hg10 mi
Weather by CustomWeather, © 2015

See weather overviewHow to use our weather pages